Flag for Germany Weather past 2 weeks in Viersen, North Rhine-Westphalia, Germany

Now
73 °F

Clear.


Feels Like: 77 °F
Forecast: 51 / 78 °F
Wind: 8 mph from North

Location: Monchengladbach Airport

Current Time: Aug 1, 2015 at 8:30:32 PM

Latest Report: Aug 1, 2015 at 7:50 PM


Visibility: 10 mi

Pressure: 30.01 "Hg

Humidity: 38%

Dew point: 46 °F

Location of ViersenLocation

Historic Weather in Viersen — Graph

°F

Viersen temperature yesterday

Maximum temperature yesterday: 68 °F (at 5:20 PM)
Minimum temperature yesterday: 54 °F (at 8:20 AM)
Average temperature yesterday: 63 °F

Past Weeks' High & Low Weather Summary

 TemperatureHumidityPressure
High84 °F (Jul 17, 7:20 PM)100% (Jul 20, 7:50 AM)30.15 "Hg (Jul 20, 7:50 AM)
Low54 °F (Jul 31, 8:20 AM)34% (Aug 1, 6:20 PM)29.50 "Hg (Jul 25, 7:50 AM)
Average67 °F65%29.88 "Hg
* Reported Jul 17 7:20 PM — Aug 1 7:20 PM, Viersen, Weather by CustomWeather, © 2015

Note: Actual official high and low records may vary slightly from our data, if they occured in-between our weather recording intervals... More about our weather records

Advertising

Viersen weather history for previous 24 hours

 ConditionsComfort  
Time TempWeatherWind HumidityBarometerVisibility
7:20 PM
Sat, Aug 1
75 °FPassing clouds.7 mph34%29.98 "HgN/A
6:50 PM75 °FPassing clouds.5 mph34%29.98 "HgN/A
6:20 PM75 °FClear.9 mph34%29.98 "Hg10 mi
5:50 PM75 °FPassing clouds.7 mph39%29.98 "HgN/A
5:20 PM73 °FPassing clouds.6 mph38%29.98 "HgN/A
4:50 PM77 °FPassing clouds.8 mph36%29.98 "HgN/A
4:20 PM75 °FPassing clouds.6 mph36%29.98 "HgN/A
3:50 PM75 °FPassing clouds.7 mph36%29.98 "HgN/A
3:20 PM75 °FClear.7 mph39%29.98 "Hg10 mi
2:50 PM75 °FPassing clouds.7 mph36%29.98 "HgN/A
2:20 PM73 °FPassing clouds.6 mph36%29.98 "HgN/A
1:50 PM73 °FClear.3 mph36%29.98 "Hg10 mi
1:20 PM72 °FPassing clouds.6 mph36%29.98 "HgN/A
12:50 PM72 °FSunny.5 mph38%29.98 "Hg10 mi
12:20 PM72 °FSunny.3 mph38%29.98 "Hg10 mi
11:50 AM70 °FPassing clouds.5 mph46%29.98 "HgN/A
11:20 AM68 °FSunny.3 mph43%29.98 "Hg10 mi
10:50 AM66 °FSunny.3 mph52%29.98 "Hg10 mi
10:20 AM66 °FSunny.2 mph49%30.01 "Hg10 mi
9:50 AM63 °FSunny.2 mph56%29.98 "Hg10 mi
9:20 AM63 °FSunny.3 mph59%29.98 "Hg10 mi
8:50 AM59 °FSunny.2 mph68%29.98 "Hg10 mi
8:20 AM57 °FSunny.2 mph67%29.98 "Hg10 mi
7:50 AM57 °FSunny.2 mph72%29.98 "Hg10 mi
8:20 PM
Fri, Jul 31
66 °FClear.6 mph40%30.04 "Hg10 mi
Weather by CustomWeather, © 2015

See weather overviewHow to use our weather pages